Querétaro Intercontinental Airport
MMQT : now visible

Airfield :











YOU CAN JOIN US ON...

 
LOGIN :

Register | Disclaimer

   EN    FR    IT 

 









Legend :    VFR   Marginal VFR   IFR   Intensive IFR   Very Intensive IFR
Visi :
Ceiling :
>= 8 km
>= 3000ft
5 to 8 km
1000 to 3000 ft
1500m to 5 km
500 to 1000 ft
800 to 1500m
200 to 500 ft
< 800m
< 200 ft
Symbols :   Thunderstorms  Fog  Heavy snow  Heavy precipitations  Wind > 20 kt






- Airport Elevation : 6296 ft
- IATA code : QRO


MMQT - Querétaro Intercontinental

CURRENT METAR :
  • 301441Z 11008KT 8SM SCT020 17/09 A3034 RMK 8/500

EXPIRED METARs :
  • 301353Z 07008KT 8SM SCT020 16/10 A3034 RMK 8/500
  • 301247Z 09005KT 8SM FEW020 13/10 A3034 RMK 8/500

TAF TAF MMQT
Valid from the 30 at 06:00 until the 31 at 06:00 UTC


300435Z 3006/3106 08005KT 6SM HZ SKC
TEMPO 3011/3015 3SM BR BKN010
FM301800 03010KT P6SM SCT030 SCT200
TEMPO 3023/3103 6SM -RA BKN020CB
MMFR FIR / North America



MET'MAP, your aeronautical weather chart ! - Copyright ORBIFLY December 2007 - Disclaimer

ORBIFLY MET'MAP TEAM :

Programming & Development : Alexandra Zaïnal
Concept & original design : Baudouin d'Aumeries
Assistance for programming : Marc-Olivier Méhu
Technical & hardware support : Manuel Goepfert

Contact : metmap@orbifly.com




SOURCES & CREDITS :

   NOAA       Earth
Advisory